International Skating Union - Official Site

ISU European Speed Skating Championships 2015
January 10-11, 2015

Draw | Lap Times | Index | Classification

Referee: Knut Arthur  OLSEN  (NOR)
Starter: Jyrki  JÄÄSKELÄINEN  (FIN)
StartTime: EndTime: Air Temp: Ice Temp: Humidity:
18:58 19:59 11.8℃ -6.1℃ 35.3%
Result 10000m Men
Rankings as of Jan 11 2015 8:00PM
Rank: No.: Name: Nation: Time: Behind: Points:
1 113 Sven  Kramer NED NED 13:07.27400m - 34.31 - (34.3)
800m - 1:05.17 - (30.8)
1200m - 1:36.58 - (31.4)
1600m - 2:07.70 - (31.1)
2000m - 2:38.97 - (31.2)
2400m - 3:10.09 - (31.1)
2800m - 3:41.38 - (31.2)
3200m - 4:12.54 - (31.1)
3600m - 4:44.02 - (31.4)
4000m - 5:15.40 - (31.3)
4400m - 5:46.95 - (31.5)
4800m - 6:18.35 - (31.4)
5200m - 6:49.95 - (31.6)
5600m - 7:21.34 - (31.3)
6000m - 7:52.83 - (31.4)
6400m - 8:24.20 - (31.3)
6800m - 8:55.56 - (31.3)
7200m - 9:26.87 - (31.3)
7600m - 9:58.37 - (31.5)
8000m - 10:29.80 - (31.4)
8400m - 11:01.28 - (31.4)
8800m - 11:32.64 - (31.3)
9200m - 12:03.95 - (31.3)
9600m - 12:35.33 - (31.3)
10000m - 13:07.27 - (31.9)
39.363
2 118 Sverre  Lunde Pedersen NOR NOR 13:16.27400m - 35.14 - (35.1)
800m - 1:06.40 - (31.2)
1200m - 1:38.01 - (31.6)
1600m - 2:09.81 - (31.8)
2000m - 2:41.56 - (31.7)
2400m - 3:13.53 - (31.9)
2800m - 3:45.11 - (31.5)
3200m - 4:16.81 - (31.7)
3600m - 4:48.70 - (31.8)
4000m - 5:20.46 - (31.7)
4400m - 5:52.05 - (31.5)
4800m - 6:23.98 - (31.9)
5200m - 6:55.70 - (31.7)
5600m - 7:27.48 - (31.7)
6000m - 7:59.19 - (31.7)
6400m - 8:30.99 - (31.8)
6800m - 9:02.64 - (31.6)
7200m - 9:34.55 - (31.9)
7600m - 10:06.30 - (31.7)
8000m - 10:38.03 - (31.7)
8400m - 11:09.56 - (31.5)
8800m - 11:41.33 - (31.7)
9200m - 12:12.85 - (31.5)
9600m - 12:44.47 - (31.6)
10000m - 13:16.27 - (31.8)
9.00 39.813
3 102 Bart  Swings BEL BEL 13:21.06400m - 35.44 - (35.4)
800m - 1:06.91 - (31.4)
1200m - 1:38.75 - (31.8)
1600m - 2:10.84 - (32.0)
2000m - 2:43.17 - (32.3)
2400m - 3:15.00 - (31.8)
2800m - 3:46.99 - (31.9)
3200m - 4:18.84 - (31.8)
3600m - 4:50.82 - (31.9)
4000m - 5:22.84 - (32.0)
4400m - 5:54.93 - (32.0)
4800m - 6:26.96 - (32.0)
5200m - 6:58.88 - (31.9)
5600m - 7:30.78 - (31.9)
6000m - 8:02.31 - (31.5)
6400m - 8:34.30 - (31.9)
6800m - 9:06.14 - (31.8)
7200m - 9:38.20 - (32.0)
7600m - 10:10.24 - (32.0)
8000m - 10:42.10 - (31.8)
8400m - 11:13.96 - (31.8)
8800m - 11:45.81 - (31.8)
9200m - 12:17.75 - (31.9)
9600m - 12:49.52 - (31.7)
10000m - 13:21.06 - (31.5)
13.79 40.053
4 124 Denis  Yuskov RUS RUS 13:21.15400m - 34.10 - (34.1)
800m - 1:05.88 - (31.7)
1200m - 1:38.10 - (32.2)
1600m - 2:10.12 - (32.0)
2000m - 2:41.92 - (31.8)
2400m - 3:13.49 - (31.5)
2800m - 3:45.32 - (31.8)
3200m - 4:16.99 - (31.6)
3600m - 4:48.79 - (31.8)
4000m - 5:20.83 - (32.0)
4400m - 5:52.96 - (32.1)
4800m - 6:25.37 - (32.4)
5200m - 6:57.51 - (32.1)
5600m - 7:30.15 - (32.6)
6000m - 8:02.77 - (32.6)
6400m - 8:35.20 - (32.4)
6800m - 9:07.55 - (32.3)
7200m - 9:39.62 - (32.0)
7600m - 10:11.23 - (31.6)
8000m - 10:42.77 - (31.5)
8400m - 11:14.88 - (32.1)
8800m - 11:46.88 - (32.0)
9200m - 12:19.32 - (32.4)
9600m - 12:50.25 - (30.9)
10000m - 13:21.15 - (30.9)
13.88 40.057
5 115 Koen  Verweij NED NED 13:21.90400m - 34.09 - (34.0)
800m - 1:04.57 - (30.4)
1200m - 1:36.08 - (31.5)
1600m - 2:07.70 - (31.6)
2000m - 2:39.30 - (31.6)
2400m - 3:10.92 - (31.6)
2800m - 3:42.63 - (31.7)
3200m - 4:14.28 - (31.6)
3600m - 4:46.18 - (31.9)
4000m - 5:17.85 - (31.6)
4400m - 5:49.90 - (32.0)
4800m - 6:21.94 - (32.0)
5200m - 6:54.17 - (32.2)
5600m - 7:26.53 - (32.3)
6000m - 7:58.94 - (32.4)
6400m - 8:31.33 - (32.3)
6800m - 9:03.78 - (32.4)
7200m - 9:36.17 - (32.3)
7600m - 10:08.71 - (32.5)
8000m - 10:41.30 - (32.5)
8400m - 11:13.85 - (32.5)
8800m - 11:46.09 - (32.2)
9200m - 12:18.36 - (32.2)
9600m - 12:50.19 - (31.8)
10000m - 13:21.90 - (31.7)
14.63 40.095
6 114 Wouter  olde Heuvel NED NED 13:24.95400m - 35.08 - (35.0)
800m - 1:06.49 - (31.4)
1200m - 1:38.27 - (31.7)
1600m - 2:10.27 - (32.0)
2000m - 2:42.38 - (32.1)
2400m - 3:14.26 - (31.8)
2800m - 3:46.24 - (31.9)
3200m - 4:18.40 - (32.1)
3600m - 4:50.48 - (32.0)
4000m - 5:22.60 - (32.1)
4400m - 5:54.63 - (32.0)
4800m - 6:26.73 - (32.1)
5200m - 6:58.76 - (32.0)
5600m - 7:30.61 - (31.8)
6000m - 8:02.59 - (31.9)
6400m - 8:34.51 - (31.9)
6800m - 9:06.75 - (32.2)
7200m - 9:39.18 - (32.4)
7600m - 10:11.64 - (32.4)
8000m - 10:43.94 - (32.3)
8400m - 11:16.28 - (32.3)
8800m - 11:48.70 - (32.4)
9200m - 12:20.97 - (32.2)
9600m - 12:52.94 - (31.9)
10000m - 13:24.95 - (32.0)
17.68 40.247
7 123 Danil  Sinitsyn RUS RUS 13:50.40400m - 37.66 - (37.6)
800m - 1:11.29 - (33.6)
1200m - 1:44.66 - (33.3)
1600m - 2:18.51 - (33.8)
2000m - 2:51.72 - (33.2)
2400m - 3:24.12 - (30.1)
2800m - 3:56.49 - (32.3)
3200m - 4:29.11 - (32.6)
3600m - 5:02.02 - (32.9)
4000m - 5:34.83 - (32.8)
4400m - 6:07.50 - (32.6)
4800m - 6:40.17 - (32.6)
5200m - 7:12.59 - (32.4)
5600m - 7:45.25 - (32.6)
6000m - 8:18.12 - (32.8)
6400m - 8:51.34 - (33.2)
6800m - 9:24.93 - (33.5)
7200m - 9:58.59 - (33.6)
7600m - 10:32.15 - (33.5)
8000m - 11:05.69 - (33.5)
8400m - 11:39.24 - (33.5)
8800m - 12:12.93 - (33.6)
9200m - 12:46.10 - (33.1)
9600m - 13:18.92 - (32.8)
10000m - 13:50.40 - (31.5)
43.13 41.520
8 111 Haralds  Silovs LAT LAT 14:02.15400m - 37.46 - (37.4)
800m - 1:11.59 - (34.1)
1200m - 1:46.06 - (34.4)
1600m - 2:20.21 - (34.1)
2000m - 2:53.97 - (33.7)
2400m - 3:28.08 - (34.1)
2800m - 4:02.05 - (33.9)
3200m - 4:36.00 - (33.9)
3600m - 5:10.25 - (34.2)
4000m - 5:44.34 - (34.0)
4400m - 6:18.30 - (33.9)
4800m - 6:52.44 - (34.1)
5200m - 7:26.41 - (33.9)
5600m - 8:00.14 - (33.7)
6000m - 8:33.84 - (33.7)
6400m - 9:07.59 - (33.7)
6800m - 9:41.13 - (33.5)
7200m - 10:14.46 - (33.3)
7600m - 10:47.83 - (33.3)
8000m - 11:20.86 - (33.0)
8400m - 11:53.61 - (32.7)
8800m - 12:26.35 - (32.7)
9200m - 12:58.79 - (32.4)
9600m - 13:30.61 - (31.8)
10000m - 14:02.15 - (31.5)
54.88 42.107